• Join FlightAware (Why Join?)
  • Login
  • US Flag GB Flag 
02:13 EST


 

Airport Tracker/Info


-or-


 

Live Flight TrackerFlight Track Log ✈ EJA102 ✈ 01-Jan-2014 ✈ KLUK - KGYH

Flight Track Log - Related Links

Times and Time Zones

All times are in EST time to prevent confusion due to time zone crossing. See the EJA102 flight status page for this flight to view local times or setup timezone preferences in your user account.

Time Position Orientation Groundspeed Altitude Reporting Facility
EST Latitude Longitude Course Direction KTS MPH feet Rate Location/Type
19:57 39.0833 -84.4167 207° Southwest 174 200 1,400  Level Cincinnati TRACON
19:58 39.0333 -84.4500 207° Southwest 194 223 3,900 2,479 Climbing Cincinnati TRACON
19:59 38.9878 -84.4739 202° Southwest 198 228 6,400 2,262 Climbing Indianapolis Center
20:00 38.9261 -84.4994 198° South 232 267 8,500 2,656 Climbing Indianapolis Center
20:01 38.8458 -84.5325 198° South 261 300 11,800 2,705 Climbing Indianapolis Center
20:02 38.7817 -84.5578 197° South 263 303 14,000 2,066 Climbing Indianapolis Center
20:03 38.7056 -84.5856 196° South 280 322 16,000 1,967 Climbing Indianapolis Center
20:04 38.6131 -84.5672 171° South 308 354 18,000 1,918 Climbing Indianapolis Center
20:05 38.5300 -84.5458 169° South 306 352 19,900 1,869 Climbing Indianapolis Center
20:06 38.4458 -84.5233 168° South 307 353 21,800 1,610 Climbing Indianapolis Center
20:07 38.3614 -84.5017 169° South 308 354 23,200 1,317 Climbing Indianapolis Center
20:08 38.2733 -84.4767 167° South 316 364 24,500 1,230 Climbing Indianapolis Center
20:09 38.1753 -84.4544 170° South 345 397 25,700 1,230 Climbing Indianapolis Center
20:10 38.0586 -84.4264 169° South 360 414 27,000 1,180 Climbing Indianapolis Center
20:11 37.9592 -84.4006 168° South 364 419 28,100 1,131 Climbing Indianapolis Center
20:12 37.8586 -84.3742 168° South 369 425 29,300 934 Climbing Indianapolis Center
20:13 37.7581 -84.3483 169° South 368 423 30,000 344 Climbing Indianapolis Center
20:14 37.6528 -84.3233 169° South 379 436 30,000  Level Indianapolis Center
20:15 37.5442 -84.2756 161° South 423 487 30,000  Level Indianapolis Center
20:16 37.4467 -84.1853 144° Southeast 432 497 30,000  Level Indianapolis Center
20:17 37.3522 -84.0939 142° Southeast 430 495 30,000  Level Indianapolis Center
20:18 37.2567 -84.0014 142° Southeast 432 497 30,000  Level Indianapolis Center
20:19 37.1600 -83.9086 143° Southeast 436 502 30,000  Level Indianapolis Center
20:20 37.0478 -83.8011 143° Southeast 437 503 30,000  Level Indianapolis Center
20:21 36.9528 -83.7100 143° Southeast 432 497 30,000  Level Indianapolis Center
20:22 36.8578 -83.6194 143° Southeast 430 495 30,000  Level Indianapolis Center
20:23 36.7633 -83.5294 143° Southeast 430 495 30,000 -836 Level Indianapolis Center
20:24 36.6656 -83.4372 143° Southeast 436 502 28,300 -1,805 Descending Indianapolis Center
20:25 36.5614 -83.3394 143° Southeast 457 526 26,300 -1,951 Descending Indianapolis Center
20:26 36.4569 -83.2419 143° Southeast 469 540 24,300 -1,981 Descending Indianapolis Center
20:27 36.3681 -83.1622 144° Southeast 464 534 22,800 -1,943 Descending Atlanta Center
20:28 36.2714 -83.0703 143° Southeast 459 528 20,900 -1,750 Descending Atlanta Center
20:29 36.1767 -82.9817 143° Southeast 447 514 19,300 -950 Descending Atlanta Center
20:30 36.0800 -82.8928 143° Southeast 442 509 19,000 -200 Descending Atlanta Center
20:31 35.9875 -82.8044 142° Southeast 431 496 18,900 -700 Descending Atlanta Center
20:32 35.8969 -82.7186 142° Southeast 425 489 17,600 -1,250 Descending Atlanta Center
20:33 35.8103 -82.6381 143° Southeast 405 466 16,400 -1,150 Descending Atlanta Center
20:34 35.7261 -82.5628 144° Southeast 382 440 15,300 -1,100 Descending Atlanta Center
20:35 35.6500 -82.4900 142° Southeast 382 440 14,200 -1,100 Descending Atlanta Center
20:36 35.5614 -82.4100 144° Southeast 390 449 13,100 -1,150 Descending Atlanta Center
20:37 35.4769 -82.3353 144° Southeast 390 449 11,900 -1,200 Descending Atlanta Center
20:38 35.3906 -82.2681 148° Southeast 385 443 10,700 -1,400 Descending Atlanta Center
20:39 35.3069 -82.2597 175° South 334 384 9,100 -1,600 Descending Atlanta Center
20:41 35.1750 -82.2429 174° South  Level FlightAware Approximate
20:48 34.7500 -82.3667 202° Southwest  Level FlightAware Approximate
20:49 34.7583 -82.3764 202° Southwest  Level Estimated
20:50 34.7583 -82.3764 202° Southwest  Level Estimated
20:51 34.7583 -82.3764 202° Southwest  Level Estimated
20:52 34.7583 -82.3764 202° Southwest  Level Estimated
20:53 34.7583 -82.3764 202° Southwest  Level Estimated
20:54 34.7583 -82.3764 202° Southwest  Level Estimated
20:55 34.7583 -82.3764 202° Southwest  Level Estimated
20:56 34.7583 -82.3764 202° Southwest  Level Estimated